Location: Deurze
(52.9838°N, 6.6090°E)
Time: 19:18:48
(UTC+00:00)

Meteor 2-4 Rocket - Pass Details

Date: 11 March 2026
Orbit: 797 x 907 km, 81.2° (Epoch: 20 April)

Event Time Altitude Azimuth Distance (km) Brightness Sun altitude
Rises 18:45:58 0° 346° (NNW) 3,421 7.2 -12.1°
Reaches altitude 10° 18:48:26 10° 347° (NNW) 2,465 6.4 -12.5°
Maximum altitude 18:54:01 88° 75° (ENE) 829 3.6 -13.3°
Drops below altitude 10° 18:59:25 10° 168° (SSE) 2,387 5.8 -14.1°
Sets 19:01:46 0° 169° (SSE) 3,304 6.5 -14.5°
